Regional Weather Roundup
Issued by NWS Charleston, SC

Current Version | Previous Version | Text Only | Print | Product List | Glossary On
Versions: 1 2 3 4 5 6 7 8 9 10 11 12 13 14 15 16 17 18 19 20 21 22 23 24 25 26 27 28 29 30 31 32 33 34 35 36 37 38 39 40 41 42 43 44 45 46 47 48 49 50
000 ASUS42 KCHS 220625 RWRCHS REGIONAL WEATHER ROUNDUP NATIONAL WEATHER SERVICE CHARLESTON SC 200 AM EDT FRI AUG 22 2014 NOTE: "FAIR" INDICATES FEW OR NO CLOUDS BELOW 12,000 FEET WITH NO SIGNIFICANT WEATHER AND/OR OBSTRUCTIONS TO VISIBILITY. NOT ALL STATIONS ARE QUALITY CONTROLLED BY THE NATIONAL WEATHER SERVICE. USE DATA WITH CAUTION...ESPECIALLY DEWPOINT OBSERVATIONS. SCZ027-030-031-034>040-042>050-220700- ...SOUTH CAROLINA... CITY SKY/WX TMP DP RH WIND PRES REMARKS N CHARLESTON FAIR 81 77 88 CALM 30.04F 6HR MIN TEMP: 80; 6HR MAX TEMP: 90; WATERFRONT PRK N/A 84 N/A N/A SW5 N/A FORT JOHNSON NOT AVBL MOUNT PLEASANT FAIR 81 79 94 CALM 30.03F FOG JOHNS ISLAND CLEAR 82 81 94 CALM 30.04S HX 95 PINOPOLIS N/A 82 73 74 CALM 29.97F MONCKS CORNER N/A 77 77 100 CALM 30.03S FOG SUMMERVILLE NOT AVBL BEAUFORT MCAS FAIR 82 79 90 W6 30.04F HX 92 6HR MIN TEMP: 81; 6HR MAX TEMP: 89; BEAUFORT ARPT FAIR 81 81 100 SW3 30.03F HX 91 HILTON HEAD IS FAIR 81 81 100 CALM 30.04F HX 91 GEORGETOWN NOT AVBL WALTERBORO FAIR 73 N/A N/A CALM 30.05S ORANGEBURG FAIR 75 72 90 CALM 30.05F 6HR MIN TEMP: 75; 6HR MAX TEMP: 88; BARNWELL FAIR 75 70 83 CALM 30.06F AIKEN FAIR 77 72 83 CALM 30.10S MANNING FAIR 73 N/A N/A CALM 30.04S KINGSTREE NOT AVBL COLUMBIA FAIR 78 70 76 W3 30.05S 6HR MIN TEMP: 76; 6HR MAX TEMP: 92; SUMTER FAIR 77 69 77 W2 30.03F 6HR MIN TEMP: 75; 6HR MAX TEMP: 89; FLORENCE FAIR 75 71 87 CALM 30.03F 6HR MIN TEMP: 74; 6HR MAX TEMP: 85; MYRTLE BEACH FAIR 81 75 83 SW6 30.03S N MYRTLE BEACH FAIR 76 74 93 W3 30.02F 6HR MIN TEMP: 75; 6HR MAX TEMP: 82; $$ GAZ063-065-086>088-099>101-113>116-118-119-134-136>141-150-220700- ...GEORGIA... CITY SKY/WX TMP DP RH WIND PRES REMARKS SAVANNAH ARPT FAIR 81 76 84 CALM 30.05F 6HR MIN TEMP: 80; 6HR MAX TEMP: 89; HUNTER AAF FAIR 81 78 92 SW2 30.02F 6HR MIN TEMP: 81; 6HR MAX TEMP: 88; FORT STEWART FAIR 73 72 94 CALM 30.03F 6HR MIN TEMP: 74; 6HR MAX TEMP: 87; STATESBORO NOT AVBL SYLVANIA FAIR 74 73 96 CALM 30.06S CLAXTON FAIR N/A N/A N/A CALM 30.05F THOMSON FAIR 74 74 100 CALM 30.11F AUGUSTA-BUSH FAIR 74 71 91 CALM 30.04F 6HR MIN TEMP: 73; 6HR MAX TEMP: 88; AUGUSTA-DANIEL FAIR 84 67 56 W3 30.07S SWAINSBORO FAIR 77 73 88 CALM 30.07S VIDALIA N/A 77 72 83 W3 30.07S ALMA FAIR 76 71 85 W3 30.07F 6HR MIN TEMP: 76; 6HR MAX TEMP: 87; WAYCROSS FAIR 79 75 87 W3 30.07S JESUP N/A 75 73 94 CALM 30.06S BRUNSWICK FAIR 79 72 78 W3 30.05F SAINT SIMONS FAIR 80 74 81 W8 30.04F 6HR MIN TEMP: 80; 6HR MAX TEMP: 86; $$ SCZ027-028-034-036>038-045-046-048>050-GAZ119-141-220700- ...LAKE AND SUPPLEMENTAL COASTAL OBSERVATIONS... STATION/POSITION TIME TEMP WIND PRES WAVE SWELL AIR SEA DIR/SP/G HT/PER HT/PER/DIR (UTC) (F) (DEG/KT/KT) (MB) (FT/S) (FT/S/D) UPR LAKE MARION NOT AVBL WINYAH BAY 0600 81 230/ 3 1016.0F LAKE MURRAY 0500 84 260/ 2/ 4 1017.3S ACE BASIN NERRS 0600 79 CALM 1017.0S FORT PULASKI 0600 82 210/ 4/ 6 1017.4F SAPELO ISLAND 0600 82 240/ 7 1018.0S $$ ANZ835-935-AMZ111-154-330-350-352-354-374-450-454-472-220700- ...C-MAN AND BUOY OBSERVATIONS... STATION/POSITION TIME TEMP WIND PRES WAVE SWELL AIR SEA DIR/SP/G HT/PER HT/PER/DIR (UTC) (F) (DEG/KT/KT) (MB) (FT/S) (FT/S/D) FOLLY BEACH CMAN 0600 83 240/ 5/ 7 1017.6F BUOY 41004 0600 84 85 230/ 10/ 12 1016.6F 2/ 8 2/ 8 BUOY 41008 0600 85 85 220/ 12/ 14 1017.2F 2/ 3 5E ST. MARYS GA 0600 83 N/A 2/10 FRYING PAN BUOY NOT AVBL BUOY 41025 0600 81 220/ 8/ 10 1015.6F 2/ 8 2/ 70/ 8 CAPE LOOKOUT NC 0600 82 250/ 8/ 10 1016.0F BUOY 41002 0526 81 82 240/ 10/ 12 1018.2F 2/ 9 2/130/ 9 BUOY 41010 0600 84 86 190/ 8/ 10 1018.8F 1/10 2/ 70/10 BUOY 41012 NOT AVBL ST AUGUSTINE FL 0600 76 260/ 4/ 5 1018.9F CAPERS NEARSHORE 0500 85 230/ 10/ 12 N/A FRIPP NEARSHORE NOT AVBL $$

USA.gov is the U.S. government's official web portal to all federal, state and local government web resources and services.